Location: ???????
(55.4362°N, 38.1183°E)
Time: 19:09:06
(UTC+00:00)

USA 267 - Pass Details

Date: 27 October 2021
Orbit: 1101 x 1107 km, 123.0° (Epoch: 27 November)

Event Time Altitude Azimuth Distance (km) Brightness Sun altitude
Exits shadow 15:42:23 -1° 143° (SE) 3,977 5.8 -15.1°
Rises 15:42:34 0° 143° (SE) 3,909 5.8 -15.1°
Reaches altitude 10° 15:45:13 10° 150° (SSE) 2,954 5.2 -15.5°
Maximum altitude 15:51:20 42° 220° (SW) 1,526 4.3 -16.3°
Drops below altitude 10° 15:57:29 10° 290° (WNW) 2,965 6.7 -17.2°
Sets 16:00:09 0° 298° (WNW) 3,925 7.4 -17.6°
